Regional Weather Roundup
Issued by NWS

Home | Current Version | Previous Version | Text Only | Print | Product List | Glossary Off
Versions: 1 2 3 4 5 6 7 8 9 10 11 12 13 14 15 16 17 18 19 20 21 22 23 24 25 26 27 28

000
ASUS45 KTFX 191610
RWRMT
MONTANA REGIONAL WEATHER ROUNDUP
NATIONAL WEATHER SERVICE GREAT FALLS MT
1000 AM MDT WED JUL 19 2017

NOTE: "FAIR" INDICATES FEW OR NO CLOUDS BELOW 12000 FEET WITH NO
SIGNIFICANT WEATHER AND/OR OBSTRUCTIONS TO VISIBILITY.

MTZ001>007-043-191700-
WEST OF THE DIVIDE

CITY           SKY/WX    TMP DP  RH WIND       PRES   REMARKS
KALISPELL      SUNNY     69  45  41 CALM      30.07S
MISSOULA       SUNNY     71  43  36 S5        30.09F
BUTTE          SUNNY     69  40  34 CALM      30.21F
MULLAN PASS    SUNNY     64  33  31 CALM      30.22R
ANACONDA         N/A     73  41  31 SE6       30.16F
DEER LODGE       N/A     73  48  40 SE8       30.16F
EUREKA           N/A     66  39  37 MISG      30.07F
HAMILTON         N/A     70  43  37 SE5       30.10F
LIBBY            N/A     64  39  39 CALM      30.06S
PLAINS           N/A     68  43  40 CALM      30.07S
$$

MTZ008-052>055-191700-
SOUTHWEST MONTANA

CITY           SKY/WX    TMP DP  RH WIND       PRES   REMARKS
BOZEMAN        SUNNY     72  45  37 S7        30.15F
DILLON         SUNNY     68  46  45 VRB3      30.19S
W YELLOWSTONE  CLOUDY    66  39  37 W5        30.28S
ENNIS          SUNNY     70  39  32 CALM      30.25S
THREE FORKS      N/A     72  45  37 CALM      30.13S
TWIN BRIDGES     N/A     70  40  33 CALM      30.15R
$$

MTZ009-010-012-014-046-048-049-054-191700-
EAST SLOPES AND CENTRAL MONTANA

CITY           SKY/WX    TMP DP  RH WIND       PRES   REMARKS
CUT BANK       SUNNY     77  34  21 W13       30.05S
GREAT FALLS    SUNNY     81  39  22 NW12      30.05R
HELENA         SUNNY     76  49  38 N6        30.10S
CHOTEAU          N/A     79  30  17 VRB3      30.08S
$$

MTZ011-013-016-021-045-047-050-051-191700-
NORTH CENTRAL MONTANA

CITY           SKY/WX    TMP DP  RH WIND       PRES   REMARKS
HAVRE          SUNNY     80  41  24 W15       29.96R
LEWISTOWN      SUNNY     76  54  46 VRB7      30.08S
N BAR RANCH      N/A     81  37  21 W14G23    30.12R
CHINOOK          N/A     81  41  24 W7        29.95S
$$

MTZ017>020-022>027-061-062-191700-
NORTHEAST MONTANA

CITY           SKY/WX    TMP DP  RH WIND       PRES   REMARKS
GLASGOW        SUNNY     79  51  37 CALM      29.94R
JORDAN           N/A     79  54  41 SE7       29.98R
SIDNEY         CLOUDY    74  64  71 S9        29.93F
WOLF POINT     CLOUDY    79  57  46 VRB5      29.92R
MALTA          SUNNY     79  48  34 W7        29.95S
PLENTYWOOD       N/A     73  52  46 NW13      29.93S
POPLAR           N/A     72  55  56 N8        29.92F
SCOBEY           N/A     77  43  29 N6        29.94R
$$

MTZ028>42-056>058-191700-
SOUTHCENTRAL AND SOUTHEAST MONTANA

CITY           SKY/WX    TMP DP  RH WIND       PRES   REMARKS
BAKER          MOSUNNY   73  58  59 E20G28    30.02S
BILLINGS       MOSUNNY   75  47  36 SW8       30.11S
LIVINGSTON     SUNNY     74  44  34 W7        30.15F
MILES CITY     SUNNY     80  51  36 E15G23    29.99F
BIG TIMBER     SUNNY     77  41  27 W14       30.15F
EKALAKA          N/A     79  62  55 E12       29.99R
FORSYTH          N/A     81  52  36 NE8       30.01S
LAUREL           N/A     76  46  34 SE2       30.09F
$$

REGIONAL REPORTS...DAKOTAS

CITY           SKY/WX    TMP DP  RH WIND       PRES   REMARKS
WILLISTON      CLOUDY    74  65  73 S8        29.89F
MINOT          CLOUDY    73  62  68 SW9       29.87F
DICKINSON      CLOUDY    65  60  84 S15       30.00S
BEACH          CLOUDY    70  59  68 S8        30.05R
CROSBY           N/A     66  63  88 CALM      29.92S
TIOGA          DRIZZLE   72  66  83 W9        29.96R
WATFORD CITY     N/A     70  64  83 SW12G20   29.95R
BISMARCK       LGT RAIN  66  62  87 S12       29.96F
GRAND FORKS    CLOUDY    69  62  78 S13       29.95F
FARGO          CLOUDY    70  61  73 S15       30.06R
BUFFALO SD       N/A     70  60  70 E25       29.96R
RAPID CITY     SUNNY     88  64  44 S15       29.92F
$$

REGIONAL REPORTS...WYOMING/IDAHO/WASHINGTON

CITY           SKY/WX    TMP DP  RH WIND       PRES   REMARKS
GILLETTE       MOSUNNY   84  52  33 NW22      30.08R
SHERIDAN       CLOUDY    77  50  38 NW20G26   30.11R
BUFFALO WY     CLOUDY    73  48  41 N22G30    30.13R
CODY           CLOUDY    71  48  43 N12       30.18F
YELLOWSTONE LA   N/A     62  48  60 E3        30.38S
IDAHO FALLS    MOSUNNY   74  50  42 SW5       30.14S
BOISE          SUNNY     78  42  27 W6        30.03S
SPOKANE        SUNNY     69  45  41 S6        30.05R
$$

REGIONAL REPORTS...ALBERTA

CITY           SKY/WX    TMP DP  RH WIND       PRES   REMARKS
EDMONTON       SUNNY     61  52  72 SW6       29.92S
CALGARY        SUNNY     61  41  48 SW6       30.03S SMOKE
LETHBRIDGE     SUNNY     66  41  39 W7        30.02F
MEDICINE HAT   SUNNY     70  50  49 E5        29.98S
WATERTON GATE    N/A     72  41  33 S6          N/A
CARDSTON         N/A     70  43  37 E1          N/A
$$

REGIONAL REPORTS...SASKATCHEWAN

CITY           SKY/WX    TMP DP  RH WIND       PRES   REMARKS
SWIFT CURRENT  SUNNY     68  48  49 NE14      29.97R
REGINA         CLOUDY    70  50  49 N15       29.92S
SASKATOON      MOSUNNY   63  50  63 NW5       29.98S
CYPRESS HILLS    N/A     68  37  32 NE7         N/A
VAL MARIE        N/A     77  39  25 NE6         N/A
ROCKGLEN         N/A     75  41  29 N10         N/A
$$




USA.gov is the U.S. government's official web portal to all federal, state and local government web resources and services.